| time (UTC) | temp F | wind direction | speed MPH | gust MPH | rain 1hr in | rain 24hr in | rain mn in | humidity % | barometer mb |
| 20260507144938 | 54 | 321 | 5.0 | 5.0 | 0.00 | 0.00 | 0.00 | 50 | 1016.1 |
| 20260507144435 | 55 | 195 | 3.0 | 4.0 | 0.00 | 0.00 | 0.00 | 48 | 1016.2 |
| 20260507143932 | 55 | 227 | 1.0 | 3.0 | 0.00 | 0.00 | 0.00 | 46 | 1016.1 |
| 20260507143430 | 54 | 161 | 1.0 | 3.0 | 0.00 | 0.00 | 0.00 | 47 | 1016.3 |
| 20260507142926 | 52 | 208 | 2.0 | 5.0 | 0.00 | 0.00 | 0.00 | 47 | 1016.2 |
| 20260507142422 | 52 | 238 | 2.0 | 5.0 | 0.00 | 0.00 | 0.00 | 46 | 1016.1 |
| 20260507141919 | 53 | 259 | 0.0 | 2.0 | 0.00 | 0.00 | 0.00 | 50 | 1016.1 |
| 20260507141415 | 54 | 302 | 2.0 | 4.0 | 0.00 | 0.00 | 0.00 | 51 | 1016.4 |
| 20260507140912 | 54 | 60 | 1.0 | 3.0 | 0.00 | 0.00 | 0.00 | 50 | 1016.2 |
| 20260507140408 | 54 | 325 | 2.0 | 2.0 | 0.00 | 0.00 | 0.00 | 48 | 1016.2 |
| 20260507135907 | 52 | 204 | 0.0 | 4.0 | 0.00 | 0.00 | 0.00 | 51 | 1016.3 |
| 20260507135403 | 53 | 136 | 1.0 | 3.0 | 0.00 | 0.00 | 0.00 | 54 | 1016.3 |
| 20260507134901 | 51 | 118 | 2.0 | 3.0 | 0.00 | 0.00 | 0.00 | 58 | 1016.2 |
| 20260507134356 | 50 | 218 | 0.0 | 2.0 | 0.00 | 0.00 | 0.00 | 58 | 1016.3 |
| 20260507133853 | 50 | 264 | 0.0 | 1.0 | 0.00 | 0.00 | 0.00 | 64 | 1016.3 |
| 20260507133348 | 49 | 238 | 0.0 | 4.0 | 0.00 | 0.00 | 0.00 | 58 | 1016.2 |
| 20260507132847 | 50 | 289 | 2.0 | 2.0 | 0.00 | 0.00 | 0.00 | 59 | 1016.3 |
| 20260507132343 | 50 | 63 | 0.0 | 5.0 | 0.00 | 0.00 | 0.00 | 59 | 1016.2 |
| 20260507131840 | 52 | 161 | 0.0 | 4.0 | 0.00 | 0.00 | 0.00 | 55 | 1016.1 |
| 20260507131337 | 52 | 83 | 1.0 | 2.0 | 0.00 | 0.00 | 0.00 | 60 | 1016.1 |
| 20260507130834 | 53 | 207 | 0.0 | 3.0 | 0.00 | 0.00 | 0.00 | 66 | 1016.3 |
| 20260507130331 | 51 | 357 | 0.0 | 3.0 | 0.00 | 0.00 | 0.00 | 64 | 1016.0 |
| 20260507125830 | 51 | 21 | 1.0 | 2.0 | 0.00 | 0.00 | 0.00 | 62 | 1016.2 |
| 20260507125327 | 51 | 195 | 1.0 | 2.0 | 0.00 | 0.00 | 0.00 | 73 | 1016.2 |
| 20260507124824 | 51 | 157 | 1.0 | 1.0 | 0.00 | 0.00 | 0.00 | 76 | 1016.1 |
| 20260507124320 | 50 | 355 | 0.0 | 1.0 | 0.00 | 0.00 | 0.00 | 76 | 1016.0 |
| 20260507123819 | 51 | 86 | 2.0 | 2.0 | 0.00 | 0.00 | 0.00 | 64 | 1016.1 |
| 20260507123316 | 49 | 122 | 0.0 | 1.0 | 0.00 | 0.00 | 0.00 | 74 | 1016.3 |
| 20260507122812 | 48 | 102 | 0.0 | 1.0 | 0.00 | 0.00 | 0.00 | 81 | 1016.2 |
| 20260507122308 | 46 | 52 | 0.0 | 2.0 | 0.00 | 0.00 | 0.00 | 86 | 1016.0 |
| 20260507121804 | 46 | 249 | 0.0 | 2.0 | 0.00 | 0.00 | 0.00 | 85 | 1016.2 |
| 20260507121300 | 45 | 160 | 2.0 | 2.0 | 0.00 | 0.00 | 0.00 | 86 | 1016.1 |
| 20260507120756 | 47 | 187 | 0.0 | 2.0 | 0.00 | 0.00 | 0.00 | 83 | 1016.1 |
| 20260507120253 | 46 | 135 | 0.0 | 0.0 | 0.00 | 0.00 | 0.00 | 88 | 1016.2 |
| 20260507115749 | 43 | 55 | 0.0 | 0.0 | 0.00 | 0.00 | 0.00 | 96 | 1016.0 |
| 20260507115245 | 41 | 135 | 0.0 | 0.0 | 0.00 | 0.00 | 0.00 | 98 | 1016.1 |
| 20260507114741 | 40 | 293 | 0.0 | 2.0 | 0.00 | 0.00 | 0.00 | 99 | 1016.2 |
| 20260507114238 | 40 | 48 | 0.0 | 1.0 | 0.00 | 0.00 | 0.00 | 99 | 1016.0 |
| 20260507113736 | 39 | 21 | 0.0 | 2.0 | 0.00 | 0.00 | 0.00 | 99 | 1016.0 |
| 20260507113232 | 38 | 135 | 1.0 | 2.0 | 0.00 | 0.00 | 0.00 | 99 | 1016.1 |
| 20260507112730 | 38 | 202 | 0.0 | 1.0 | 0.00 | 0.00 | 0.00 | 99 | 1016.2 |
| 20260507112227 | 37 | 97 | 0.0 | 1.0 | 0.00 | 0.00 | 0.00 | 99 | 1016.1 |
| 20260507111724 | 37 | 304 | 0.0 | 1.0 | 0.00 | 0.00 | 0.00 | 99 | 1016.2 |
| 20260507111221 | 37 | 132 | 1.0 | 1.0 | 0.00 | 0.00 | 0.00 | 99 | 1016.0 |
| 20260507110717 | 37 | 103 | 0.0 | 1.0 | 0.00 | 0.00 | 0.00 | 99 | 1016.0 |
| 20260507110214 | 37 | 103 | 0.0 | 0.0 | 0.00 | 0.00 | 0.00 | 99 | 1015.9 |
| 20260507105711 | 37 | 42 | 0.0 | 1.0 | 0.00 | 0.00 | 0.00 | 99 | 1015.7 |
| 20260507105206 | 37 | 212 | 0.0 | 1.0 | 0.00 | 0.00 | 0.00 | 99 | 1015.8 |
| 20260507104704 | 37 | 117 | 0.0 | 1.0 | 0.00 | 0.00 | 0.00 | 99 | 1015.7 |
| 20260507104200 | 37 | 104 | 0.0 | 1.0 | 0.00 | 0.00 | 0.00 | 99 | 1015.7 |
| 20260507103656 | 37 | 203 | 0.0 | 1.0 | 0.00 | 0.00 | 0.00 | 99 | 1015.6 |
| 20260507103153 | 37 | 191 | 0.0 | 1.0 | 0.00 | 0.00 | 0.00 | 99 | 1015.8 |
| 20260507102649 | 37 | 157 | 0.0 | 1.0 | 0.00 | 0.00 | 0.00 | 99 | 1015.5 |
| 20260507102146 | 37 | 127 | 1.0 | 2.0 | 0.00 | 0.00 | 0.00 | 99 | 1015.5 |
| 20260507101642 | 38 | 160 | 1.0 | 2.0 | 0.00 | 0.00 | 0.00 | 99 | 1015.5 |
| 20260507101138 | 38 | 13 | 0.0 | 1.0 | 0.00 | 0.00 | 0.00 | 99 | 1015.3 |
| 20260507100635 | 38 | 152 | 0.0 | 1.0 | 0.00 | 0.00 | 0.00 | 99 | 1015.5 |
| 20260507100133 | 38 | 105 | 0.0 | 2.0 | 0.00 | 0.00 | 0.00 | 99 | 1015.6 |
| 20260507095631 | 38 | 132 | 0.0 | 2.0 | 0.00 | 0.00 | 0.00 | 99 | 1015.5 |
| 20260507095127 | 38 | 140 | 0.0 | 2.0 | 0.00 | 0.00 | 0.00 | 99 | 1015.5 |
| 20260507094624 | 38 | 39 | 1.0 | 2.0 | 0.00 | 0.00 | 0.00 | 99 | 1015.6 |
| 20260507094121 | 39 | 135 | 0.0 | 0.0 | 0.00 | 0.00 | 0.00 | 99 | 1015.5 |
| 20260507093618 | 39 | 150 | 0.0 | 1.0 | 0.00 | 0.00 | 0.00 | 99 | 1015.6 |
| 20260507093117 | 39 | 147 | 0.0 | 1.0 | 0.00 | 0.00 | 0.00 | 99 | 1015.5 |
| 20260507092613 | 39 | 135 | 0.0 | 1.0 | 0.00 | 0.00 | 0.00 | 99 | 1015.6 |
| 20260507092109 | 39 | 66 | 0.0 | 0.0 | 0.00 | 0.00 | 0.00 | 99 | 1015.5 |
| 20260507091606 | 39 | 28 | 0.0 | 0.0 | 0.00 | 0.00 | 0.00 | 99 | 1015.6 |
| 20260507091102 | 39 | 53 | 0.0 | 0.0 | 0.00 | 0.00 | 0.00 | 99 | 1015.5 |
| 20260507090558 | 39 | 32 | 0.0 | 0.0 | 0.00 | 0.00 | 0.00 | 99 | 1015.4 |
| 20260507090055 | 39 | 22 | 0.0 | 0.0 | 0.00 | 0.00 | 0.00 | 99 | 1015.5 |
| 20260507085552 | 39 | 127 | 0.0 | 1.0 | 0.00 | 0.00 | 0.00 | 99 | 1015.4 |
| 20260507085049 | 39 | 166 | 0.0 | 0.0 | 0.00 | 0.00 | 0.00 | 99 | 1015.5 |
| 20260507084545 | 39 | 34 | 0.0 | 0.0 | 0.00 | 0.00 | 0.00 | 99 | 1015.2 |
| 20260507084043 | 39 | 44 | 0.0 | 0.0 | 0.00 | 0.00 | 0.00 | 99 | 1015.3 |
| 20260507083539 | 39 | 120 | 0.0 | 0.0 | 0.00 | 0.00 | 0.00 | 99 | 1015.1 |
| 20260507083036 | 40 | 123 | 1.0 | 2.0 | 0.00 | 0.00 | 0.00 | 99 | 1015.2 |
| 20260507082532 | 40 | 130 | 0.0 | 0.0 | 0.00 | 0.00 | 0.00 | 99 | 1015.1 |
| 20260507082028 | 40 | 89 | 0.0 | 0.0 | 0.00 | 0.00 | 0.00 | 99 | 1015.1 |
| 20260507081525 | 40 | 135 | 0.0 | 0.0 | 0.00 | 0.00 | 0.00 | 99 | 1015.1 |
| 20260507081022 | 40 | 114 | 0.0 | 0.0 | 0.00 | 0.00 | 0.00 | 99 | 1015.1 |
| 20260507080518 | 40 | 55 | 0.0 | 0.0 | 0.00 | 0.00 | 0.00 | 99 | 1015.1 |
| 20260507080014 | 41 | 36 | 0.0 | 1.0 | 0.00 | 0.00 | 0.00 | 99 | 1015.2 |
| 20260507075509 | 41 | 113 | 0.0 | 1.0 | 0.00 | 0.00 | 0.00 | 99 | 1015.0 |
| 20260507075006 | 41 | 60 | 0.0 | 1.0 | 0.00 | 0.00 | 0.00 | 99 | 1015.1 |
| 20260507074503 | 41 | 37 | 0.0 | 1.0 | 0.00 | 0.00 | 0.00 | 99 | 1015.2 |
| 20260507074002 | 41 | 81 | 0.0 | 1.0 | 0.00 | 0.00 | 0.00 | 99 | 1015.1 |
| 20260507073457 | 41 | 69 | 0.0 | 1.0 | 0.00 | 0.00 | 0.00 | 99 | 1015.2 |
| 20260507072954 | 41 | 103 | 0.0 | 1.0 | 0.00 | 0.00 | 0.00 | 99 | 1015.3 |
| 20260507072452 | 41 | 55 | 0.0 | 0.0 | 0.00 | 0.00 | 0.00 | 99 | 1015.2 |
| 20260507071949 | 41 | 76 | 0.0 | 0.0 | 0.00 | 0.00 | 0.00 | 99 | 1015.2 |
| 20260507071446 | 41 | 103 | 0.0 | 0.0 | 0.00 | 0.00 | 0.00 | 99 | 1015.1 |
| 20260507070942 | 41 | 135 | 0.0 | 0.0 | 0.00 | 0.00 | 0.00 | 99 | 1015.1 |
| 20260507070440 | 41 | 89 | 0.0 | 1.0 | 0.00 | 0.00 | 0.00 | 99 | 1015.2 |
| 20260507065936 | 41 | 87 | 0.0 | 1.0 | 0.00 | 0.00 | 0.00 | 99 | 1015.3 |
| 20260507065433 | 41 | 76 | 0.0 | 0.0 | 0.00 | 0.00 | 0.00 | 99 | 1015.3 |
| 20260507064930 | 41 | 124 | 0.0 | 0.0 | 0.00 | 0.00 | 0.00 | 99 | 1015.3 |
| 20260507064428 | 41 | 60 | 0.0 | 1.0 | 0.00 | 0.00 | 0.00 | 99 | 1015.2 |
| 20260507063926 | 41 | 113 | 0.0 | 0.0 | 0.00 | 0.00 | 0.00 | 99 | 1015.4 |
| 20260507063423 | 41 | 130 | 0.0 | 0.0 | 0.00 | 0.00 | 0.00 | 99 | 1015.4 |
| 20260507062920 | 41 | 89 | 0.0 | 0.0 | 0.00 | 0.00 | 0.00 | 99 | 1015.3 |
| 20260507062417 | 41 | 89 | 0.0 | 0.0 | 0.00 | 0.00 | 0.00 | 98 | 1015.3 |
| 20260507061914 | 42 | 55 | 0.0 | 0.0 | 0.00 | 0.00 | 0.00 | 98 | 1015.5 |
| 20260507061412 | 41 | 113 | 0.0 | 0.0 | 0.00 | 0.00 | 0.00 | 98 | 1015.5 |
| 20260507060911 | 42 | 44 | 0.0 | 0.0 | 0.00 | 0.00 | 0.00 | 98 | 1015.4 |
| 20260507060407 | 42 | 113 | 0.0 | 0.0 | 0.00 | 0.00 | 0.00 | 98 | 1015.5 |
| 20260507055904 | 42 | 130 | 0.0 | 0.0 | 0.00 | 0.00 | 0.00 | 98 | 1015.5 |
| 20260507055358 | 42 | 52 | 0.0 | 0.0 | 0.00 | 0.00 | 0.00 | 98 | 1015.3 |
| 20260507054856 | 42 | 55 | 0.0 | 0.0 | 0.00 | 0.00 | 0.00 | 98 | 1015.5 |
| 20260507054352 | 42 | 113 | 0.0 | 0.0 | 0.00 | 0.00 | 0.00 | 97 | 1015.3 |
| 20260507053849 | 42 | 102 | 0.0 | 1.0 | 0.00 | 0.00 | 0.00 | 97 | 1015.1 |
| 20260507053347 | 42 | 126 | 0.0 | 1.0 | 0.00 | 0.00 | 0.00 | 97 | 1015.2 |
| 20260507052846 | 42 | 113 | 0.0 | 1.0 | 0.00 | 0.00 | 0.00 | 97 | 1015.4 |
| 20260507052342 | 42 | 76 | 0.0 | 1.0 | 0.00 | 0.00 | 0.00 | 97 | 1015.4 |
| 20260507051839 | 42 | 89 | 0.0 | 1.0 | 0.00 | 0.00 | 0.00 | 97 | 1015.4 |
| 20260507051337 | 42 | 53 | 0.0 | 1.0 | 0.00 | 0.00 | 0.00 | 97 | 1015.4 |
| 20260507050834 | 43 | 76 | 0.0 | 1.0 | 0.00 | 0.00 | 0.00 | 97 | 1015.5 |
| 20260507050330 | 43 | 99 | 1.0 | 1.0 | 0.00 | 0.00 | 0.00 | 97 | 1015.5 |
| 20260507045827 | 43 | 44 | 0.0 | 0.0 | 0.00 | 0.00 | 0.00 | 97 | 1015.5 |
| 20260507045324 | 43 | 130 | 0.0 | 0.0 | 0.00 | 0.00 | 0.00 | 97 | 1015.8 |
| 20260507044821 | 43 | 113 | 0.0 | 1.0 | 0.00 | 0.00 | 0.00 | 97 | 1015.8 |
| 20260507044317 | 43 | 102 | 0.0 | 0.0 | 0.00 | 0.00 | 0.00 | 97 | 1015.7 |
| 20260507043813 | 43 | 89 | 0.0 | 1.0 | 0.00 | 0.00 | 0.00 | 97 | 1015.5 |
| 20260507043310 | 43 | 104 | 0.0 | 1.0 | 0.00 | 0.00 | 0.00 | 97 | 1015.4 |
| 20260507042806 | 44 | 110 | 0.0 | 0.0 | 0.00 | 0.00 | 0.00 | 97 | 1015.4 |
| 20260507042302 | 44 | 113 | 0.0 | 0.0 | 0.00 | 0.00 | 0.00 | 97 | 1015.3 |
| 20260507041759 | 44 | 122 | 0.0 | 1.0 | 0.00 | 0.00 | 0.00 | 97 | 1015.4 |
| 20260507041255 | 44 | 109 | 0.0 | 2.0 | 0.00 | 0.00 | 0.00 | 97 | 1015.3 |
| 20260507040753 | 44 | 116 | 0.0 | 2.0 | 0.00 | 0.00 | 0.00 | 97 | 1015.4 |
| 20260507040249 | 44 | 154 | 0.0 | 1.0 | 0.00 | 0.00 | 0.00 | 97 | 1015.4 |
| 20260507035745 | 44 | 133 | 0.0 | 0.0 | 0.00 | 0.41 | 0.41 | 96 | 1015.3 |
| 20260507035240 | 44 | 119 | 0.0 | 0.0 | 0.00 | 0.41 | 0.41 | 96 | 1015.2 |
| 20260507034738 | 44 | 55 | 0.0 | 0.0 | 0.00 | 0.41 | 0.41 | 96 | 1015.4 |
| 20260507034235 | 44 | 125 | 0.0 | 1.0 | 0.00 | 0.41 | 0.41 | 96 | 1015.3 |
| 20260507033733 | 44 | 135 | 0.0 | 2.0 | 0.00 | 0.41 | 0.41 | 96 | 1015.3 |
| 20260507033230 | 45 | 76 | 0.0 | 0.0 | 0.00 | 0.41 | 0.41 | 96 | 1015.3 |
| 20260507032728 | 45 | 135 | 0.0 | 1.0 | 0.00 | 0.41 | 0.41 | 95 | 1015.2 |
| 20260507032223 | 45 | 107 | 0.0 | 1.0 | 0.00 | 0.41 | 0.41 | 95 | 1015.3 |
| 20260507031720 | 45 | 113 | 0.0 | 0.0 | 0.00 | 0.41 | 0.41 | 95 | 1015.4 |
| 20260507031217 | 45 | 32 | 0.0 | 0.0 | 0.00 | 0.41 | 0.41 | 95 | 1015.3 |
| 20260507030714 | 45 | 124 | 0.0 | 0.0 | 0.00 | 0.41 | 0.41 | 95 | 1015.2 |
| 20260507030212 | 46 | 118 | 0.0 | 0.0 | 0.00 | 0.41 | 0.41 | 95 | 1015.4 |
| 20260507025708 | 46 | 119 | 0.0 | 1.0 | 0.00 | 0.41 | 0.41 | 95 | 1015.3 |
| 20260507025206 | 46 | 55 | 0.0 | 0.0 | 0.00 | 0.41 | 0.41 | 95 | 1015.4 |
| 20260507024704 | 46 | 119 | 0.0 | 1.0 | 0.00 | 0.41 | 0.41 | 95 | 1015.5 |
| 20260507024200 | 46 | 126 | 0.0 | 0.0 | 0.00 | 0.41 | 0.41 | 94 | 1015.5 |
| 20260507023656 | 46 | 119 | 0.0 | 1.0 | 0.00 | 0.41 | 0.41 | 94 | 1015.3 |
| 20260507023153 | 46 | 124 | 0.0 | 0.0 | 0.00 | 0.41 | 0.41 | 94 | 1015.5 |
| 20260507022650 | 46 | 160 | 0.0 | 0.0 | 0.00 | 0.41 | 0.41 | 93 | 1015.4 |
| 20260507022146 | 46 | 55 | 0.0 | 0.0 | 0.00 | 0.41 | 0.41 | 93 | 1015.5 |
| 20260507021643 | 46 | 113 | 0.0 | 0.0 | 0.00 | 0.41 | 0.41 | 93 | 1015.3 |
| 20260507021138 | 46 | 55 | 0.0 | 0.0 | 0.00 | 0.41 | 0.41 | 92 | 1015.3 |
| 20260507020637 | 46 | 89 | 0.0 | 0.0 | 0.00 | 0.41 | 0.41 | 92 | 1015.2 |
| 20260507020132 | 47 | 77 | 0.0 | 0.0 | 0.00 | 0.41 | 0.41 | 92 | 1015.0 |
| 20260507015631 | 47 | 77 | 0.0 | 0.0 | 0.00 | 0.41 | 0.41 | 91 | 1015.2 |
| 20260507015128 | 47 | 141 | 0.0 | 0.0 | 0.00 | 0.41 | 0.41 | 91 | 1014.9 |
| 20260507014624 | 47 | 112 | 0.0 | 1.0 | 0.00 | 0.41 | 0.41 | 90 | 1015.0 |
| 20260507014120 | 47 | 116 | 0.0 | 1.0 | 0.00 | 0.41 | 0.41 | 88 | 1014.9 |
| 20260507013617 | 48 | 127 | 1.0 | 1.0 | 0.00 | 0.41 | 0.41 | 87 | 1014.8 |
| 20260507013114 | 48 | 63 | 0.0 | 0.0 | 0.00 | 0.41 | 0.41 | 86 | 1014.7 |
| 20260507012612 | 49 | 119 | 0.0 | 1.0 | 0.00 | 0.41 | 0.41 | 85 | 1014.9 |
| 20260507012107 | 49 | 135 | 0.0 | 0.0 | 0.00 | 0.41 | 0.41 | 84 | 1014.7 |
| 20260507011606 | 50 | 105 | 0.0 | 0.0 | 0.00 | 0.41 | 0.41 | 84 | 1014.7 |
| 20260507011101 | 50 | 124 | 0.0 | 1.0 | 0.00 | 0.41 | 0.41 | 85 | 1014.5 |
| 20260507010556 | 50 | 147 | 0.0 | 1.0 | 0.00 | 0.41 | 0.41 | 85 | 1014.7 |
| 20260507010052 | 50 | 139 | 0.0 | 1.0 | 0.00 | 0.41 | 0.41 | 83 | 1014.6 |
| 20260507005550 | 50 | 143 | 1.0 | 1.0 | 0.00 | 0.41 | 0.41 | 83 | 1014.6 |
| 20260507005046 | 50 | 113 | 0.0 | 1.0 | 0.00 | 0.41 | 0.41 | 83 | 1014.8 |
| 20260507004543 | 50 | 103 | 0.0 | 1.0 | 0.00 | 0.41 | 0.41 | 82 | 1014.7 |
| 20260507004041 | 50 | 127 | 0.0 | 2.0 | 0.00 | 0.41 | 0.41 | 82 | 1014.7 |
| 20260507003536 | 50 | 146 | 0.0 | 1.0 | 0.00 | 0.41 | 0.41 | 80 | 1014.7 |
| 20260507003031 | 51 | 106 | 0.0 | 0.0 | 0.00 | 0.41 | 0.41 | 80 | 1014.5 |
| 20260507002528 | 51 | 124 | 0.0 | 1.0 | 0.00 | 0.41 | 0.41 | 78 | 1014.3 |
| 20260507002024 | 52 | 105 | 1.0 | 2.0 | 0.00 | 0.41 | 0.41 | 75 | 1014.1 |
| 20260507001521 | 53 | 113 | 0.0 | 1.0 | 0.00 | 0.41 | 0.41 | 76 | 1014.1 |
| 20260507001019 | 53 | 127 | 0.0 | 2.0 | 0.00 | 0.41 | 0.41 | 75 | 1014.2 |
| 20260507000514 | 53 | 154 | 0.0 | 0.0 | 0.00 | 0.41 | 0.41 | 79 | 1014.1 |
| 20260507000010 | 54 | 103 | 0.0 | 1.0 | 0.00 | 0.41 | 0.41 | 72 | 1014.1 |
| 20260506235508 | 54 | 153 | 1.0 | 2.0 | 0.00 | 0.41 | 0.41 | 70 | 1014.2 |
| 20260506235003 | 54 | 151 | 0.0 | 1.0 | 0.00 | 0.41 | 0.41 | 72 | 1014.2 |
| 20260506234501 | 54 | 141 | 1.0 | 2.0 | 0.00 | 0.41 | 0.41 | 69 | 1014.2 |
| 20260506233958 | 54 | 201 | 0.0 | 2.0 | 0.00 | 0.41 | 0.41 | 66 | 1014.1 |
| 20260506233455 | 54 | 129 | 0.0 | 0.0 | 0.00 | 0.41 | 0.41 | 69 | 1014.2 |
| 20260506232951 | 55 | 54 | 0.0 | 2.0 | 0.00 | 0.41 | 0.41 | 62 | 1014.0 |
| 20260506232448 | 55 | 302 | 0.0 | 3.0 | 0.00 | 0.41 | 0.41 | 63 | 1013.9 |
| 20260506231943 | 55 | 135 | 0.0 | 0.0 | 0.00 | 0.41 | 0.41 | 69 | 1013.9 |
| 20260506231441 | 55 | 215 | 0.0 | 2.0 | 0.00 | 0.41 | 0.41 | 62 | 1013.8 |
| 20260506230938 | 55 | 186 | 0.0 | 1.0 | 0.00 | 0.41 | 0.41 | 71 | 1014.1 |
| 20260506230434 | 55 | 294 | 0.0 | 1.0 | 0.00 | 0.41 | 0.41 | 61 | 1014.1 |
| 20260506225931 | 55 | 47 | 0.0 | 3.0 | 0.00 | 0.41 | 0.41 | 57 | 1014.1 |
| 20260506225428 | 55 | 205 | 0.0 | 2.0 | 0.00 | 0.41 | 0.41 | 63 | 1014.1 |
| 20260506224925 | 55 | 325 | 0.0 | 2.0 | 0.00 | 0.41 | 0.41 | 58 | 1014.1 |
| 20260506224423 | 56 | 173 | 0.0 | 3.0 | 0.00 | 0.41 | 0.41 | 57 | 1014.1 |
| 20260506223919 | 56 | 145 | 2.0 | 2.0 | 0.00 | 0.41 | 0.41 | 57 | 1014.2 |
| 20260506223414 | 56 | 92 | 1.0 | 2.0 | 0.00 | 0.41 | 0.41 | 59 | 1014.3 |
| 20260506222912 | 56 | 59 | 1.0 | 4.0 | 0.00 | 0.41 | 0.41 | 60 | 1014.3 |
| 20260506222408 | 57 | 229 | 0.0 | 3.0 | 0.00 | 0.41 | 0.41 | 56 | 1014.5 |
| 20260506221906 | 57 | 219 | 0.0 | 2.0 | 0.00 | 0.41 | 0.41 | 58 | 1014.6 |
| 20260506221402 | 57 | 218 | 1.0 | 3.0 | 0.00 | 0.41 | 0.41 | 54 | 1014.4 |
| 20260506220900 | 57 | 349 | 2.0 | 4.0 | 0.00 | 0.41 | 0.41 | 56 | 1014.3 |
| 20260506220355 | 56 | 154 | 0.0 | 1.0 | 0.00 | 0.41 | 0.41 | 61 | 1014.5 |
| 20260506215852 | 57 | 158 | 0.0 | 2.0 | 0.00 | 0.41 | 0.41 | 57 | 1014.5 |
| 20260506215348 | 57 | 44 | 0.0 | 2.0 | 0.00 | 0.41 | 0.41 | 59 | 1014.5 |
| 20260506214844 | 57 | 159 | 2.0 | 2.0 | 0.00 | 0.41 | 0.41 | 61 | 1014.5 |
| 20260506214341 | 56 | 173 | 0.0 | 2.0 | 0.00 | 0.41 | 0.41 | 52 | 1014.1 |
| 20260506213839 | 57 | 74 | 2.0 | 4.0 | 0.00 | 0.41 | 0.41 | 55 | 1014.1 |
| 20260506213336 | 56 | 162 | 2.0 | 2.0 | 0.00 | 0.41 | 0.41 | 57 | 1014.2 |
| 20260506212833 | 56 | 224 | 0.0 | 4.0 | 0.00 | 0.41 | 0.41 | 56 | 1014.1 |
| 20260506212329 | 57 | 61 | 1.0 | 2.0 | 0.00 | 0.41 | 0.41 | 57 | 1014.1 |
| 20260506211824 | 57 | 40 | 1.0 | 2.0 | 0.00 | 0.41 | 0.41 | 58 | 1014.1 |
| 20260506211320 | 57 | 216 | 1.0 | 2.0 | 0.00 | 0.41 | 0.41 | 59 | 1014.1 |
| 20260506210818 | 57 | 193 | 0.0 | 5.0 | 0.00 | 0.41 | 0.41 | 55 | 1014.1 |
| 20260506210315 | 57 | 173 | 0.0 | 1.0 | 0.00 | 0.41 | 0.41 | 60 | 1013.9 |
| 20260506205812 | 56 | 203 | 0.0 | 3.0 | 0.00 | 0.41 | 0.41 | 54 | 1013.9 |
| 20260506205308 | 56 | 27 | 2.0 | 5.0 | 0.00 | 0.41 | 0.41 | 55 | 1014.2 |
| 20260506204804 | 57 | 313 | 2.0 | 2.0 | 0.00 | 0.41 | 0.41 | 63 | 1013.9 |
| 20260506204302 | 57 | 50 | 0.0 | 1.0 | 0.00 | 0.41 | 0.41 | 56 | 1014.1 |
| 20260506203759 | 56 | 192 | 1.0 | 2.0 | 0.00 | 0.41 | 0.41 | 57 | 1014.2 |
| 20260506203257 | 56 | 123 | 1.0 | 2.0 | 0.00 | 0.41 | 0.41 | 54 | 1014.0 |
| 20260506202754 | 57 | 200 | 1.0 | 2.0 | 0.00 | 0.41 | 0.41 | 61 | 1013.9 |
| 20260506202251 | 56 | 134 | 0.0 | 2.0 | 0.00 | 0.41 | 0.41 | 62 | 1014.0 |
| 20260506201747 | 56 | 146 | 1.0 | 2.0 | 0.00 | 0.41 | 0.41 | 55 | 1014.0 |
| 20260506201244 | 56 | 168 | 0.0 | 2.0 | 0.00 | 0.41 | 0.41 | 54 | 1014.1 |
| 20260506200741 | 56 | 281 | 2.0 | 4.0 | 0.00 | 0.41 | 0.41 | 55 | 1013.9 |
| 20260506200237 | 56 | 260 | 0.0 | 2.0 | 0.00 | 0.41 | 0.41 | 58 | 1014.1 |
| 20260506195733 | 56 | 193 | 0.0 | 2.0 | 0.00 | 0.41 | 0.41 | 56 | 1013.8 |
| 20260506195230 | 56 | 237 | 0.0 | 2.0 | 0.00 | 0.41 | 0.41 | 57 | 1013.9 |
| 20260506194727 | 56 | 226 | 1.0 | 2.0 | 0.00 | 0.41 | 0.41 | 56 | 1013.9 |
| 20260506194224 | 56 | 206 | 0.0 | 2.0 | 0.00 | 0.41 | 0.41 | 60 | 1014.0 |
| 20260506193722 | 56 | 256 | 0.0 | 2.0 | 0.00 | 0.41 | 0.41 | 56 | 1013.9 |
| 20260506193219 | 57 | 272 | 0.0 | 2.0 | 0.00 | 0.41 | 0.41 | 59 | 1013.9 |
| 20260506192715 | 57 | 195 | 2.0 | 4.0 | 0.00 | 0.41 | 0.41 | 54 | 1013.8 |
| 20260506192212 | 57 | 193 | 1.0 | 3.0 | 0.00 | 0.41 | 0.41 | 54 | 1013.9 |
| 20260506191709 | 57 | 204 | 2.0 | 4.0 | 0.00 | 0.41 | 0.41 | 58 | 1013.8 |
| 20260506191204 | 57 | 302 | 2.0 | 5.0 | 0.00 | 0.41 | 0.41 | 57 | 1013.6 |
| 20260506190702 | 57 | 174 | 0.0 | 2.0 | 0.00 | 0.41 | 0.41 | 67 | 1013.6 |
| 20260506190158 | 57 | 287 | 1.0 | 3.0 | 0.00 | 0.41 | 0.41 | 58 | 1013.8 |
| 20260506185656 | 57 | 199 | 2.0 | 4.0 | 0.00 | 0.41 | 0.41 | 58 | 1013.8 |
| 20260506185152 | 57 | 321 | 2.0 | 4.0 | 0.00 | 0.41 | 0.41 | 54 | 1013.9 |
| 20260506184650 | 57 | 297 | 0.0 | 2.0 | 0.00 | 0.41 | 0.41 | 56 | 1013.8 |
| 20260506184147 | 57 | 226 | 0.0 | 4.0 | 0.00 | 0.41 | 0.41 | 54 | 1013.8 |
| 20260506183643 | 57 | 246 | 1.0 | 4.0 | 0.00 | 0.41 | 0.41 | 62 | 1013.8 |
| 20260506183139 | 56 | 162 | 0.0 | 2.0 | 0.00 | 0.41 | 0.41 | 58 | 1014.0 |
| 20260506182637 | 56 | 162 | 1.0 | 2.0 | 0.00 | 0.41 | 0.41 | 56 | 1014.0 |
| 20260506182134 | 56 | 188 | 2.0 | 3.0 | 0.00 | 0.41 | 0.41 | 60 | 1013.7 |
| 20260506181632 | 56 | 227 | 2.0 | 4.0 | 0.00 | 0.41 | 0.41 | 54 | 1013.8 |
| 20260506181129 | 58 | 309 | 1.0 | 4.0 | 0.00 | 0.41 | 0.41 | 51 | 1013.5 |
| 20260506180626 | 58 | 182 | 2.0 | 5.0 | 0.00 | 0.41 | 0.41 | 54 | 1013.6 |
| 20260506180122 | 59 | 144 | 2.0 | 4.0 | 0.00 | 0.41 | 0.41 | 53 | 1013.6 |
| 20260506175618 | 58 | 142 | 1.0 | 2.0 | 0.00 | 0.41 | 0.41 | 56 | 1013.9 |
| 20260506175114 | 57 | 320 | 3.0 | 4.0 | 0.00 | 0.41 | 0.41 | 58 | 1014.1 |
| 20260506174614 | 57 | 345 | 3.0 | 4.0 | 0.00 | 0.41 | 0.41 | 57 | 1014.1 |
| 20260506174109 | 58 | 193 | 2.0 | 3.0 | 0.00 | 0.41 | 0.41 | 59 | 1014.1 |
| 20260506173607 | 57 | 131 | 1.0 | 3.0 | 0.00 | 0.41 | 0.41 | 56 | 1014.1 |
| 20260506173104 | 57 | 43 | 1.0 | 4.0 | 0.00 | 0.41 | 0.41 | 56 | 1014.3 |
| 20260506172601 | 56 | 261 | 2.0 | 5.0 | 0.00 | 0.41 | 0.41 | 55 | 1014.1 |
| 20260506172057 | 57 | 321 | 1.0 | 5.0 | 0.00 | 0.41 | 0.41 | 56 | 1013.9 |
| 20260506171555 | 56 | 254 | 1.0 | 4.0 | 0.00 | 0.41 | 0.41 | 55 | 1014.1 |
| 20260506171052 | 57 | 142 | 0.0 | 5.0 | 0.00 | 0.41 | 0.41 | 58 | 1014.0 |
| 20260506170549 | 56 | 214 | 4.0 | 4.0 | 0.00 | 0.41 | 0.41 | 65 | 1014.1 |
| 20260506170047 | 56 | 267 | 3.0 | 7.0 | 0.00 | 0.41 | 0.41 | 55 | 1014.1 |
| 20260506165545 | 56 | 256 | 0.0 | 4.0 | 0.00 | 0.41 | 0.41 | 56 | 1014.3 |
| 20260506165041 | 56 | 223 | 4.0 | 5.0 | 0.00 | 0.41 | 0.41 | 55 | 1014.2 |
| 20260506164538 | 56 | 221 | 1.0 | 4.0 | 0.00 | 0.41 | 0.41 | 70 | 1014.1 |
| 20260506164036 | 56 | 37 | 0.0 | 4.0 | 0.00 | 0.41 | 0.41 | 59 | 1014.1 |
| 20260506163531 | 56 | 254 | 3.0 | 4.0 | 0.00 | 0.41 | 0.41 | 61 | 1014.3 |
| 20260506163027 | 56 | 258 | 1.0 | 4.0 | 0.00 | 0.41 | 0.41 | 56 | 1013.9 |
| 20260506162524 | 55 | 199 | 1.0 | 3.0 | 0.00 | 0.41 | 0.41 | 62 | 1013.8 |
| 20260506162021 | 57 | 232 | 1.0 | 4.0 | 0.00 | 0.41 | 0.41 | 56 | 1013.9 |
| 20260506161519 | 56 | 128 | 2.0 | 3.0 | 0.00 | 0.41 | 0.41 | 56 | 1013.8 |
| 20260506161015 | 57 | 243 | 0.0 | 2.0 | 0.00 | 0.41 | 0.41 | 61 | 1014.0 |
| 20260506160513 | 56 | 265 | 0.0 | 3.0 | 0.00 | 0.41 | 0.41 | 64 | 1014.0 |
| 20260506160011 | 55 | 101 | 2.0 | 4.0 | 0.00 | 0.41 | 0.41 | 59 | 1014.2 |
| 20260506155509 | 55 | 80 | 0.0 | 4.0 | 0.00 | 0.41 | 0.41 | 62 | 1014.2 |
| 20260506153640 | 54 | 190 | 2.0 | 4.0 | 0.00 | 0.41 | 0.41 | 62 | 1014.2 |
| 20260506153137 | 54 | 218 | 1.0 | 4.0 | 0.00 | 0.41 | 0.41 | 61 | 1014.2 |
| 20260506152634 | 54 | 94 | 4.0 | 9.0 | 0.00 | 0.41 | 0.41 | 61 | 1013.9 |
| 20260506152132 | 56 | 323 | 0.0 | 5.0 | 0.00 | 0.41 | 0.41 | 61 | 1014.1 |
| 20260506151630 | 56 | 264 | 0.0 | 2.0 | 0.00 | 0.41 | 0.41 | 64 | 1014.2 |
| 20260506151126 | 55 | 274 | 1.0 | 5.0 | 0.00 | 0.41 | 0.41 | 63 | 1013.9 |
| 20260506150623 | 55 | 54 | 3.0 | 4.0 | 0.00 | 0.41 | 0.41 | 64 | 1013.8 |
| 20260506150120 | 57 | 105 | 3.0 | 3.0 | 0.00 | 0.41 | 0.41 | 65 | 1013.7 |
| 20260506145617 | 55 | 251 | 1.0 | 3.0 | 0.00 | 0.41 | 0.41 | 62 | 1013.6 |
| 20260506145114 | 54 | 131 | 2.0 | 4.0 | 0.00 | 0.41 | 0.41 | 64 | 1013.0 |